NOAA 15 [B]

Last updated on Fri Dec 29 2023 00:02:19 GMT+0000 (Coordinated Universal Time)

1 25338U 98030A 23362.46299382 .00000276 00000+0 13263-3 0 9992 2 25338 98.5874 28.0288 0011386 105.4383 254.8056 14.26461844332957
UTC large
Height (km)
Speed (km/s)
/
Latitude / Longitude
Inclination (degrees)
Orbital Period (minutes)
Azimuth
Elevation
Range (km)
Doppler Factor

Next 0 passes for location: London (51.5072 / 0.1276)

Sorry there are no passes over London.